Dane County Regional Airport (Madison, WI) (MSN)


Airport Diagram
Current Weather/Forecast (VFR Conditions)
METAR KMSN 171553Z 18007KT 10SM FEW190 FEW250 24/14 A3002 RMK AO2 PRESFR SLP161 T02390144
TAF KMSN 171505Z 1715/1812 22008KT P6SM FEW040 FEW180 FM171800 27010G18KT P6SM VCSH BKN050 FM172100 32009KT P6SM BKN100 FM180000 35004KT P6SM SCT250

All Charts
General
Chart Name Download
AIRPORT DIAGRAM
TAKEOFF MINIMUMS
ALTERNATE MINIMUMS
HOT SPOT
LAHSO

Approaches
Chart Name Download
ILS OR LOC RWY 18
ILS OR LOC RWY 21
ILS OR LOC/DME RWY 36
ILS RWY 36 (SA CAT I)
ILS RWY 18 (SA CAT I - II)
ILS RWY 36 (CAT II - III)
RNAV (GPS) RWY 03
RNAV (GPS) RWY 14
RNAV (GPS) RWY 18
RNAV (GPS) RWY 21
RNAV (GPS) RWY 32
RNAV (GPS) RWY 36
VOR RWY 14
VOR RWY 32
HI-TACAN RWY 18
HI-TACAN RWY 36